Hurricane Symbol View the latest observations near Atlantic Potential Tropical Cyclone One.

Station 44095 - Oregon Inlet, NC (192) Image indicating link to RSS feed of recent meteorological observations for station 44095


Conditions at 44095 as of
(11:26 am EDT)
1526 GMT on 06/18/2024:
     

Click on the graph icon in the table below to see a time series plot of the last five days of that observation.

5-day plot - Wave Height Wave Height (WVHT): 2.6 ft
5-day plot - Dominant Wave Period Dominant Wave Period (DPD): 7 sec
5-day plot - Average Wave Period Average Period (APD): 4.9 sec
5-day plot - Mean Wave Direction Mean Wave Direction (MWD):ESE ( 106 deg true )
5-day plot - Water Temperature Water Temperature (WTMP): 75.4 °F
Previous observations
TIME
(EDT)
5-day plot - Wind Direction
WDIR
 
5-day plot - Wind Speed
WSPD
kts
5-day plot - Wind Gust
GST
kts
5-day plot - Wave Height
WVHT
ft
5-day plot - Dominant Wave Period
DPD
sec
5-day plot - Average Wave Period
APD
sec
5-day plot - Mean Wave Direction
MWD
 
5-day plot - Atmospheric Pressure
PRES
in
5-day plot - Pressure Tendency
PTDY
in
5-day plot - Air Temperature
ATMP
°F
5-day plot - Water Temperature
WTMP
°F
5-day plot - Dew Point
DEWP
°F
5-day plot - Salinity
SAL
psu
5-day plot - Visibility
VIS
nmi
5-day plot - Tide (above MLLW)
TIDE
ft
2024-06-18 10:56 am--- 2.6 64.9ESE--- 75.2----
2024-06-18 10:26 am--- 2.6 75.0ESE--- 75.0----
2024-06-18 09:56 am--- 3.0 75.1ESE--- 75.0----
2024-06-18 09:26 am--- 2.6 64.8ESE--- 75.0----
2024-06-18 08:56 am--- 2.6 64.9ESE--- 74.8----
2024-06-18 08:26 am--- 3.0 75.0ESE--- 74.8----
2024-06-18 07:56 am--- 2.6 64.9ESE--- 74.8----
2024-06-18 07:26 am--- 3.0 75.2ESE--- 74.7----
2024-06-18 06:56 am--- 3.0 75.1ESE--- 74.7----
2024-06-18 06:26 am--- 3.0 65.1ESE--- 74.7----
2024-06-18 05:56 am--- 3.0 65.1ESE--- 74.8----
2024-06-18 05:26 am--- 3.0 75.3ESE--- 74.8----
2024-06-18 04:56 am--- 3.0 85.4ESE--- 74.8----
2024-06-18 04:26 am--- 3.0 75.4 E--- 74.8----
2024-06-18 03:56 am--- 3.0 75.4ESE--- 75.0----
2024-06-18 03:26 am--- 3.0 65.5 E--- 75.0----
2024-06-18 02:56 am--- 2.6 65.5 E--- 75.0----
2024-06-18 02:26 am--- 3.0 75.5 E--- 75.0----
2024-06-18 01:56 am--- 3.0 85.7 E--- 75.0----
2024-06-18 01:26 am--- 3.0 65.7ESE--- 75.2----
2024-06-18 12:56 am--- 3.0 75.8 E--- 75.0----
2024-06-18 12:26 am--- 3.0 75.5 E--- 75.2----
2024-06-17 11:56 pm--- 3.0 65.5 E--- 75.2----
2024-06-17 11:26 pm--- 3.0 85.6 E--- 75.2----
2024-06-17 10:56 pm--- 3.0 85.6 E--- 75.2----
2024-06-17 10:26 pm--- 3.0 75.6 E--- 75.2----
2024-06-17 09:56 pm--- 3.0 85.7 E--- 75.2----
2024-06-17 09:26 pm--- 3.0 75.5 E--- 75.2----
2024-06-17 08:56 pm--- 3.0 85.2 E--- 75.4----
2024-06-17 08:26 pm--- 3.0 85.2 E--- 75.4----
2024-06-17 07:56 pm--- 3.0 75.3 E--- 75.4----
2024-06-17 07:26 pm--- 3.0 85.1 E--- 75.4----
2024-06-17 06:56 pm--- 3.0 85.1 E--- 75.4----
2024-06-17 06:26 pm--- 3.0 74.9 E--- 75.2----
2024-06-17 05:56 pm--- 3.0 75.0 E--- 75.4----
2024-06-17 05:26 pm--- 2.6 84.8 E--- 75.4----
2024-06-17 04:56 pm--- 3.0 75.0 E--- 75.4----
2024-06-17 04:26 pm--- 2.6 74.9ESE--- 75.4----
2024-06-17 03:56 pm--- 3.0 75.0 E--- 75.4----
2024-06-17 03:26 pm--- 3.0 75.2ESE--- 75.4----
2024-06-17 02:56 pm--- 2.6 75.2 E--- 75.6----
2024-06-17 02:26 pm--- 3.0 65.5ESE--- 75.6----
2024-06-17 01:56 pm--- 3.0 65.3ESE--- 75.4----
2024-06-17 01:26 pm--- 3.0 65.4ESE--- 75.2----
2024-06-17 12:56 pm--- 3.0 75.1ESE--- 75.2----
2024-06-17 12:26 pm--- 3.0 65.4ESE--- 75.0----
2024-06-17 11:56 am--- 3.0 65.3ESE--- 74.8----
2024-06-17 11:26 am--- 3.0 65.3ESE--- 74.8----
2024-06-17 10:56 am--- 3.0 75.4ESE--- 74.7----

Detailed Wave Summary
for 44095 as of (11:26 am EDT)
1526 GMT on 06/18/2024:

These wave data are displayed in rounded times.

     

Click on the graph icon in the table below to see a time series plot of the last five days of that observation.

5-day plot - Significant Wave Height Significant Wave Height (WVHT): 2.6 ft
5-day plot - Swell Height Swell Height (SwH): 2.3 ft
5-day plot - Swell Period Swell Period (SwP): 6.7 sec
5-day plot - Swell Direction Swell Direction (SwD):ESE
5-day plot - Wind Wave Height Wind Wave Height (WWH): 1.0 ft
5-day plot - Wind Wave Period Wind Wave Period (WWP): 4.0 sec
5-day plot - Wind Wave Direction Wind Wave Direction (WWD): SE
5-day plot - Average Wave Period Average Wave Period (APD): 4.9 sec
Previous observations
TIME
(EDT)
5-day plot - Wave Height
WVHT
ft
5-day plot - Swell Height
SwH
ft
5-day plot - Swell Period
SwP
sec
5-day plot - Swell Direction
SwD
 
5-day plot - Wind Wave Height
WWH
ft
5-day plot - Wind Wave Period
WWP
sec
5-day plot - Wind Wave Direction
WWD
 
5-day plot - Wave Steepness
STEEPNESS
 
5-day plot - Average Wave Period
APD
sec
2024-06-18 10:56 am 2.6 2.6 6.2ESE 1.0 3.8 SE AVERAGE 4.9
2024-06-18 10:26 am 2.6 2.6 5.6ESE 1.0 3.7 SE AVERAGE 5.0
2024-06-18 09:56 am 2.6 2.6 7.1ESE 1.0 3.8 SE AVERAGE 5.1
2024-06-18 09:26 am 2.6 2.6 6.2ESE 1.0 3.8 SE STEEP 4.8
2024-06-18 08:56 am 2.6 2.6 5.9ESE 1.0 4.2 SE STEEP 4.9
2024-06-18 08:26 am 3.0 2.6 6.7ESE 1.0 3.6 SE AVERAGE 5.0
2024-06-18 07:56 am 2.6 2.6 6.2ESE 1.0 3.7 SE STEEP 4.9
2024-06-18 07:26 am 3.0 3.0 7.1ESE 1.0 3.3 SE AVERAGE 5.2
2024-06-18 06:56 am 3.0 2.6 7.1ESE 0.7 4.0 ESE AVERAGE 5.1
2024-06-18 06:26 am 3.0 2.6 6.2ESE 1.0 3.8 SE STEEP 5.1
2024-06-18 05:56 am 3.0 2.6 5.9ESE 1.0 3.4 ESE STEEP 5.1
2024-06-18 05:26 am 3.0 2.6 6.7ESE 0.7 3.8 SE AVERAGE 5.3
2024-06-18 04:56 am 3.0 3.0 7.7ESE 1.0 3.6 ESE AVERAGE 5.4
2024-06-18 04:26 am 3.0 3.0 7.1 E 0.7 3.2 SE AVERAGE 5.4
2024-06-18 03:56 am 3.0 2.6 6.7ESE 0.7 3.7 ESE AVERAGE 5.4
2024-06-18 03:26 am 3.0 2.6 5.9 E 0.7 4.0 ESE STEEP 5.5
2024-06-18 02:56 am 2.6 2.6 6.2 E 0.3 3.8 ESE N/A 5.5
2024-06-18 02:26 am 3.0 2.6 7.1 E 0.7 3.3 ESE AVERAGE 5.5
2024-06-18 01:56 am 3.0 3.0 7.7 E 0.7 4.0 ESE AVERAGE 5.7
2024-06-18 01:26 am 3.0 2.6 5.9ESE 0.7 4.0 SE STEEP 5.7
2024-06-18 12:56 am 3.0 3.0 6.7 E 0.0- ESE AVERAGE 5.8
2024-06-18 12:26 am 2.6 2.6 6.7 E 0.7 3.8 ESE AVERAGE 5.5
2024-06-17 11:56 pm 2.6 2.6 6.2 E 0.7 3.4 ESE STEEP 5.5
2024-06-17 11:26 pm 2.6 2.6 7.7 E 0.7 3.8 ESE AVERAGE 5.6
2024-06-17 10:56 pm 3.0 3.0 7.7 E 0.7 3.4 ESE AVERAGE 5.6
2024-06-17 10:26 pm 3.0 2.6 6.7 E 0.3 4.0 ESE AVERAGE 5.6
2024-06-17 09:56 pm 3.0 3.0 7.7 E 0.7 4.0 ESE AVERAGE 5.7
2024-06-17 09:26 pm 3.0 3.0 6.7 E 0.7 3.7 ESE AVERAGE 5.5
2024-06-17 08:56 pm 3.0 2.6 7.7 E 1.0 3.8 ESE AVERAGE 5.2
2024-06-17 08:26 pm 3.0 2.6 7.7 E 1.0 3.4 ESE AVERAGE 5.2
2024-06-17 07:56 pm 3.0 3.0 7.1 E 1.0 3.2 ESE AVERAGE 5.3
2024-06-17 07:26 pm 3.0 2.6 7.7 E 1.0 3.3 ESE AVERAGE 5.1
2024-06-17 06:56 pm 3.0 3.0 7.7 E 1.0 3.6 ESE AVERAGE 5.1
2024-06-17 06:26 pm 2.6 2.6 6.7 E 1.0 3.6 ESE AVERAGE 4.9
2024-06-17 05:56 pm 3.0 2.6 6.7 E 1.3 3.6 ESE AVERAGE 5.0
2024-06-17 05:26 pm 2.6 2.3 7.7 E 1.3 4.0 ESE SWELL 4.8
2024-06-17 04:56 pm 3.0 2.6 6.7 E 1.0 4.2 ESE AVERAGE 5.0
2024-06-17 04:26 pm 2.6 2.6 6.7ESE 1.0 4.3 E AVERAGE 4.9
2024-06-17 03:56 pm 3.0 2.6 6.7 E 1.0 3.6 ESE AVERAGE 5.0
2024-06-17 03:26 pm 3.0 2.6 7.1ESE 1.0 3.7 ESE AVERAGE 5.2
2024-06-17 02:56 pm 2.6 2.6 6.7 E 1.0 4.2 ESE AVERAGE 5.2
2024-06-17 02:26 pm 3.0 3.0 6.2ESE 0.7 4.0 ESE STEEP 5.5
2024-06-17 01:56 pm 3.0 2.6 6.2ESE 0.7 3.8 ESE STEEP 5.3
2024-06-17 01:26 pm 3.0 3.0 5.9ESE 0.7 3.8 ESE STEEP 5.4
2024-06-17 12:56 pm 3.0 2.6 7.1ESE 1.0 2.9 ESE AVERAGE 5.1
2024-06-17 12:26 pm 3.0 3.0 6.2ESE 0.7 4.0 ESE STEEP 5.4
2024-06-17 11:56 am 3.0 3.0 5.9ESE 0.7 3.3 ESE STEEP 5.3
2024-06-17 11:26 am 3.0 3.0 5.9ESE 0.7 3.7 ESE STEEP 5.3
2024-06-17 10:56 am 3.0 3.0 6.7ESE 0.7 3.7 ESE AVERAGE 5.4

Plot of wave energy versus frequency (and period)